Shenandoah, IA

4:58 PM CST on December 13, 2017 (GMT -0600)
Shenandoah Municipal

Weather History for KSDA - June, 2013

Change the Weather History Date:

Saturday, June 1, 2013

  Actual Average Record
Temperature  
Mean Temperature 60 °F -  
Max Temperature 64 °F 77 °F 98 °F (2002)
Min Temperature 55 °F 54 °F 39 °F (1979)
Degree Days  
Heating Degree Days 6    
Growing Degree Days 10 (Base 50)    
Moisture  
Dew Point 49 °F    
Average Humidity 69    
Maximum Humidity 82    
Minimum Humidity 55    
Precipitation  
Precipitation 0.00 in - - ()
Sea Level Pressure  
Sea Level Pressure 29.83 in    
Wind  
Wind Speed 10 mph (WNW)    
Max Wind Speed 21 mph    
Max Gust Speed 29 mph    
Visibility 10 miles    
Events Rain    
Averages and records for this station are not official NWS values.
T = Trace of Precipitation, MM = Missing Value Source: NWS Daily Summary

Daily Weather History Graph

Daily Weather History Graph

Search for Another Location

Airport or City:

Trip Planner

Search our weather history database for the weather conditions in past years. The results will help you decide how hot, cold, wet, or windy it might be!

Date:

Astronomy

Jun. 01, 2013 Rise Set
Actual Time 5:52 AM CDT 8:46 PM CDT
Civil Twilight 5:19 AM CDT 9:19 PM CDT
Nautical Twilight 4:38 AM CDT 10:01 PM CDT
Astronomical Twilight 3:50 AM CDT 10:49 PM CDT
Moon 1:51 AM CDT (6/1) 2:15 PM CDT (6/1)
Length of Visible Light 15h 59m
Length of Day
14h 54m
Last Quarter, 40% of the Moon is Illuminated
Jun 1
Last Quarter
Jun 8
New
Jun 16
First Quarter
Jun 23
Full
Jun 29
Last Quarter

Hourly Weather History & Observations

Time (CDT) Temp. Dew Point Humidity Pressure Visibility Wind Dir Wind Speed Gust Speed Precip Events Conditions
12:15 AM 64.4 °F 48.2 °F 56% 29.73 in 10.0 mi West 6.9 mph - N/A   Scattered Clouds
12:35 AM 62.6 °F 48.2 °F 59% 29.72 in 10.0 mi WSW 9.2 mph - N/A   Scattered Clouds
12:55 AM 62.6 °F 46.4 °F 55% 29.72 in 10.0 mi WSW 9.2 mph - N/A   Scattered Clouds
1:15 AM 62.6 °F 46.4 °F 55% 29.73 in 10.0 mi West 9.2 mph - N/A   Scattered Clouds
1:35 AM 60.8 °F 46.4 °F 59% 29.73 in 10.0 mi West 8.1 mph - N/A   Scattered Clouds
1:55 AM 60.8 °F 48.2 °F 63% 29.72 in 10.0 mi WSW 4.6 mph - N/A   Scattered Clouds
2:15 AM 60.8 °F 46.4 °F 59% 29.71 in 10.0 mi West 9.2 mph - N/A   Scattered Clouds
2:35 AM 59.0 °F 48.2 °F 67% 29.72 in 10.0 mi SW 6.9 mph - N/A   Scattered Clouds
2:55 AM 57.2 °F 46.4 °F 67% 29.71 in 10.0 mi WSW 6.9 mph - N/A   Scattered Clouds
3:15 AM 57.2 °F 46.4 °F 67% 29.70 in 10.0 mi WSW 8.1 mph - N/A   Scattered Clouds
3:35 AM 57.2 °F 46.4 °F 67% 29.70 in 10.0 mi WSW 6.9 mph - N/A   Scattered Clouds
3:55 AM 57.2 °F 46.4 °F 67% 29.70 in 10.0 mi SW 8.1 mph - N/A   Scattered Clouds
4:15 AM 57.2 °F 46.4 °F 67% 29.70 in 10.0 mi SW 6.9 mph - N/A   Clear
4:35 AM 55.4 °F 46.4 °F 72% 29.70 in 10.0 mi West 4.6 mph - N/A   Scattered Clouds
4:55 AM 57.2 °F 46.4 °F 67% 29.73 in 10.0 mi WSW 5.8 mph - N/A   Scattered Clouds
5:15 AM 57.2 °F 46.4 °F 67% 29.73 in 10.0 mi WSW 6.9 mph - N/A   Scattered Clouds
5:35 AM 55.4 °F 46.4 °F 72% 29.73 in 10.0 mi WSW 9.2 mph - N/A   Scattered Clouds
5:55 AM 55.4 °F 46.4 °F 72% 29.72 in 10.0 mi WSW 9.2 mph - N/A   Scattered Clouds
6:15 AM 55.4 °F 46.4 °F 72% 29.72 in 10.0 mi West 10.4 mph - N/A   Clear
6:35 AM 57.2 °F 46.4 °F 67% 29.73 in 10.0 mi West 9.2 mph - N/A   Clear
6:55 AM 57.2 °F 46.4 °F 67% 29.73 in 10.0 mi West 10.4 mph - N/A   Clear
7:15 AM 59.0 °F 48.2 °F 67% 29.72 in 10.0 mi West 13.8 mph 18.4 mph N/A   Clear
7:35 AM 60.8 °F 48.2 °F 63% 29.73 in 10.0 mi West 12.7 mph 19.6 mph N/A   Clear
7:55 AM 59.0 °F 48.2 °F 67% 29.74 in 10.0 mi West 10.4 mph - N/A   Clear
8:15 AM 60.8 °F 48.2 °F 63% 29.74 in 10.0 mi West 15.0 mph - N/A   Clear
8:35 AM 60.8 °F 50.0 °F 68% 29.76 in 10.0 mi West 13.8 mph - N/A   Mostly Cloudy
8:55 AM 60.8 °F 48.2 °F 63% 29.76 in 10.0 mi West 12.7 mph - N/A   Overcast
9:15 AM 60.8 °F 50.0 °F 68% 29.77 in 10.0 mi West 12.7 mph - N/A   Overcast
9:35 AM 60.8 °F 50.0 °F 68% 29.77 in 10.0 mi West 10.4 mph - N/A   Overcast
9:55 AM 60.8 °F 51.8 °F 72% 29.77 in 10.0 mi West 10.4 mph - N/A   Overcast
10:15 AM 60.8 °F 51.8 °F 72% 29.77 in 10.0 mi WNW 11.5 mph - N/A   Overcast
10:35 AM 62.6 °F 53.6 °F 72% 29.78 in 7.0 mi WNW 12.7 mph 16.1 mph N/A   Overcast
10:55 AM 62.6 °F 53.6 °F 72% 29.78 in 10.0 mi WNW 9.2 mph 18.4 mph N/A   Overcast
11:15 AM 62.6 °F 53.6 °F 72% 29.79 in 10.0 mi WNW 13.8 mph 19.6 mph N/A   Overcast
11:35 AM 62.6 °F 53.6 °F 72% 29.80 in 10.0 mi WNW 18.4 mph 23.0 mph N/A   Overcast
11:55 AM 62.6 °F 53.6 °F 72% 29.80 in 10.0 mi WNW 17.3 mph 23.0 mph N/A   Mostly Cloudy
12:15 PM 62.6 °F 51.8 °F 68% 29.81 in 10.0 mi WNW 17.3 mph 25.3 mph N/A   Overcast
12:35 PM 59.0 °F 51.8 °F 77% 29.82 in 7.0 mi WNW 11.5 mph 17.3 mph N/A Rain Light Rain
12:55 PM 60.8 °F 51.8 °F 72% 29.83 in 7.0 mi NW 20.7 mph 27.6 mph N/A   Overcast
1:15 PM 60.8 °F 51.8 °F 72% 29.84 in 7.0 mi NW 16.1 mph 24.2 mph N/A   Mostly Cloudy
1:35 PM 60.8 °F 51.8 °F 72% 29.84 in 10.0 mi WNW 15.0 mph 28.8 mph N/A   Mostly Cloudy
1:55 PM 60.8 °F 51.8 °F 72% 29.85 in 10.0 mi WNW 16.1 mph 24.2 mph N/A   Overcast
2:15 PM 62.6 °F 51.8 °F 68% 29.85 in 10.0 mi WNW 19.6 mph 24.2 mph N/A   Overcast
2:35 PM 60.8 °F 51.8 °F 72% 29.86 in 10.0 mi NW 12.7 mph 27.6 mph N/A   Overcast
2:55 PM 57.2 °F 51.8 °F 82% 29.87 in 7.0 mi NW 16.1 mph 25.3 mph N/A   Overcast
3:15 PM 60.8 °F 51.8 °F 72% 29.87 in 10.0 mi NW 18.4 mph 26.5 mph N/A   Overcast
3:35 PM 60.8 °F 51.8 °F 72% 29.88 in 10.0 mi NW 15.0 mph 23.0 mph N/A   Overcast
3:55 PM 57.2 °F 51.8 °F 82% 29.89 in 5.0 mi NW 12.7 mph 21.9 mph N/A Rain Rain
4:15 PM 59.0 °F 51.8 °F 77% 29.89 in 10.0 mi NW 18.4 mph 24.2 mph N/A   Overcast
4:35 PM 60.8 °F 51.8 °F 72% 29.89 in 10.0 mi NW 16.1 mph 23.0 mph N/A   Overcast
4:55 PM 60.8 °F 51.8 °F 72% 29.90 in 10.0 mi NNW 11.5 mph 23.0 mph N/A   Overcast
5:15 PM 60.8 °F 51.8 °F 72% 29.90 in 10.0 mi NNW 10.4 mph 19.6 mph N/A   Mostly Cloudy
5:35 PM 62.6 °F 51.8 °F 68% 29.91 in 10.0 mi NW 15.0 mph 27.6 mph N/A   Overcast
5:55 PM 62.6 °F 51.8 °F 68% 29.91 in 10.0 mi NW 16.1 mph 20.7 mph N/A   Overcast
6:15 PM 62.6 °F 51.8 °F 68% 29.92 in 10.0 mi NW 16.1 mph 25.3 mph N/A   Overcast
6:35 PM 60.8 °F 51.8 °F 72% 29.93 in 10.0 mi NW 10.4 mph 17.3 mph N/A   Overcast
6:55 PM 60.8 °F 50.0 °F 68% 29.94 in 10.0 mi NNW 11.5 mph 16.1 mph N/A   Overcast
7:15 PM 60.8 °F 50.0 °F 68% 29.94 in 10.0 mi NNW 13.8 mph - N/A   Overcast
7:35 PM 60.8 °F 50.0 °F 68% 29.95 in 10.0 mi NW 8.1 mph 19.6 mph N/A   Overcast
7:55 PM 60.8 °F 48.2 °F 63% 29.96 in 10.0 mi NNW 12.7 mph 21.9 mph N/A   Overcast
8:15 PM 59.0 °F 48.2 °F 67% 29.97 in 10.0 mi NW 11.5 mph 17.3 mph N/A   Overcast
8:35 PM 57.2 °F 48.2 °F 72% 29.98 in 10.0 mi NW 11.5 mph 17.3 mph N/A   Overcast
8:55 PM 57.2 °F 48.2 °F 72% 29.99 in 10.0 mi NW 9.2 mph - N/A   Overcast
9:15 PM 57.2 °F 48.2 °F 72% 29.98 in 10.0 mi NW 13.8 mph 24.2 mph N/A   Overcast
9:35 PM 57.2 °F 48.2 °F 72% 30.00 in 10.0 mi NNW 5.8 mph - N/A   Overcast
9:55 PM 57.2 °F 48.2 °F 72% 30.00 in 10.0 mi NNW 10.4 mph 17.3 mph N/A   Overcast
10:15 PM 57.2 °F 46.4 °F 67% 30.01 in 10.0 mi NNW 13.8 mph 19.6 mph N/A   Overcast
10:35 PM 55.4 °F 46.4 °F 72% 30.02 in 10.0 mi NNW 10.4 mph 19.6 mph N/A   Overcast
10:55 PM 55.4 °F 46.4 °F 72% 30.02 in 10.0 mi North 10.4 mph 19.6 mph N/A   Overcast
11:15 PM 55.4 °F 46.4 °F 72% 30.02 in 10.0 mi North 10.4 mph - N/A   Overcast
11:35 PM 55.4 °F 46.4 °F 72% 30.02 in 10.0 mi NNW 11.5 mph 18.4 mph N/A   Overcast
11:55 PM 55.4 °F 46.4 °F 72% 30.03 in 10.0 mi NNW 10.4 mph - N/A   Overcast